Location: Brunsbüttel
(52.3892°N, 10.6138°E)
Time: 07:11:21
(UTC+00:00)

DELTA 2 DEB (DPAF) - Pass Details

Date: 19 May 2025
Orbit: 538 x 548 km, 98.4° (Epoch: 22 June)

Event Time Altitude Azimuth Distance (km) Brightness Sun altitude
Rises 21:04:39 0° 19° (NNE) 2,733 8.0 -12.4°
Maximum altitude 21:10:41 46° 100° (E) 748 4.2 -12.8°
Enters shadow 21:13:03 20° 165° (SSE) 1,279 5.1 -13.0°
